Date,TemperatureHighF,TemperatureAvgF,TemperatureLowF,DewpointHighF,DewpointAvgF,DewpointLowF,HumidityHigh,HumidityAvg,HumidityLow,PressureMaxIn,PressureMinIn,WindSpeedMaxMPH,WindSpeedAvgMPH,GustSpeedMaxMPH,PrecipitationSumIn
2014-1-18,23,15,6,16,9,0,76,76,75,29.99,29.55,0,-999,0,0.00
2014-1-19,43,29,10,36,22,4,76,75,73,29.95,29.56,0,-999,0,0.00
2014-1-20,32,25,6,26,19,0,76,75,74,30.31,29.75,0,-999,0,0.00
2014-1-21,6,0,-8,0,-6,-14,75,73,71,30.45,30.11,0,-999,0,0.00
2014-1-22,13,6,-6,7,0,-12,75,74,72,30.44,29.97,0,-999,0,0.00
2014-1-23,2,-5,-12,-4,-12,-18,73,72,71,30.73,30.44,0,-999,0,0.00
2014-1-24,30,15,-3,23,9,-9,75,74,73,30.49,29.64,0,-999,0,0.00
2014-2-9,9,2,-7,2,-6,-15,72,70,68,30.42,30.17,0,-999,0,0.00
2014-2-10,4,-4,-14,-4,-11,-21,70,69,66,30.51,30.40,0,-999,0,0.00
2014-2-11,10,-2,-20,2,-10,-28,71,68,65,30.51,30.22,0,-999,0,0.00
2014-2-12,24,15,8,16,7,0,72,71,70,30.22,29.94,0,-999,0,0.00
2014-2-13,37,22,10,29,14,3,72,72,71,29.94,29.57,0,-999,0,0.00
2014-2-14,16,10,5,9,3,-3,71,71,69,30.09,29.73,0,-999,0,0.00
2014-2-15,19,11,-5,12,1,-100,72,71,69,30.09,29.85,0,-999,0,0.00
2014-3-9,45,31,14,39,25,9,80,79,78,30.30,29.78,0,-999,0,0.00
2014-3-10,52,43,36,43,33,-100,79,78,76,29.78,29.71,0,-999,0,0.00
2014-3-11,42,38,36,35,32,29,78,77,76,29.91,29.66,0,-999,0,0.00
2014-3-12,36,28,22,30,21,16,77,76,75,30.14,29.91,0,-999,0,0.00
2014-3-13,53,38,20,46,31,14,77,75,74,30.13,29.70,0,-999,0,0.00
2014-3-14,46,42,37,39,34,29,75,74,73,29.98,29.59,0,-999,0,0.00
2014-3-15,40,32,28,33,22,-100,74,73,71,30.29,29.98,0,-999,0,0.00
2014-3-31,68,51,29,56,31,-100,67,66,64,29.88,29.44,0,-999,0,0.00
2014-4-1,42,32,23,31,22,13,64,64,62,30.12,29.72,0,-999,0,0.00
2014-4-2,52,40,28,39,-15,-100,65,64,63,30.17,29.96,0,-999,0,0.00
2014-4-3,46,40,35,35,-25,-100,65,64,63,29.96,29.65,0,-999,0,0.00
2014-4-4,37,34,29,27,-18,-100,67,65,64,30.12,29.56,0,-999,0,0.00
2014-4-5,54,39,26,39,-25,-100,66,65,64,30.21,30.08,0,-999,0,0.00
2014-4-6,61,48,38,50,25,-100,65,64,63,30.08,29.91,0,-999,0,0.00
2014-4-25,71,55,38,49,-59,-100,65,63,58,29.87,29.79,0,-999,0,0.00
2014-4-26,69,56,44,52,11,-100,59,58,55,29.96,29.80,0,-999,0,0.00
2014-4-27,63,48,36,49,-57,-100,62,58,54,29.89,29.53,0,-999,0,0.00
2014-4-28,51,47,44,38,-97,-100,64,63,61,29.61,29.42,0,-999,0,0.00
2014-4-29,45,42,34,34,-94,-100,66,65,64,29.71,29.47,0,-999,0,0.00
2014-4-30,41,37,34,31,-78,-100,68,67,66,29.78,29.70,0,-999,0,0.00
2014-5-1,48,43,39,39,-4,-100,69,68,68,29.91,29.73,0,-999,0,0.00
2014-5-13,54,50,46,49,45,40,81,81,80,30.26,30.16,0,-999,0,0.00
2014-5-14,59,51,37,48,-20,-100,81,79,77,30.29,30.11,0,-999,0,0.00
2014-5-15,49,45,41,43,38,35,78,77,77,30.12,30.04,0,-999,0,0.00
2014-5-16,52,45,37,43,26,-100,77,76,74,30.14,30.06,0,-999,0,0.00
2014-5-17,64,52,37,44,-42,-100,76,74,71,30.16,30.09,0,-999,0,0.00
2014-5-18,71,59,45,48,-34,-100,71,68,64,30.20,30.07,0,-999,0,0.00
2014-5-19,74,62,52,62,50,41,64,64,63,30.12,29.79,0,-999,0,0.00
2014-5-20,88,75,62,73,60,50,64,61,56,29.88,29.79,0,-999,0,0.00
2014-5-21,80,70,59,63,54,43,59,57,54,30.12,29.86,0,-999,0,0.00
2014-7-24,80,70,57,64,54,43,59,57,56,30.20,29.97,0,0,0,0.00
2014-7-25,79,68,61,66,54,47,66,62,58,30.05,29.84,0,0,0,0.00
2014-7-26,88,76,67,74,55,56,66,64,62,29.91,29.82,0,0,0,0.00
2014-7-27,74,70,65,61,58,52,65,64,63,30.07,29.88,0,0,0,0.00
2014-7-28,74,67,57,60,54,46,65,63,62,30.22,30.08,0,0,0,0.00
2014-7-29,78,66,56,64,53,44,64,62,60,30.17,30.08,0,0,0,0.00
2014-7-30,81,68,57,66,53,44,62,60,58,30.13,30.08,0,0,0,0.00
2014-7-31,82,68,57,65,50,44,60,58,56,30.12,30.05,0,0,0,0.00
2014-8-1,83,71,58,67,55,44,59,57,55,30.13,30.07,0,0,0,0.00
2014-8-2,85,73,60,68,57,46,58,56,54,30.20,30.13,0,0,0,0.00
2014-8-3,84,73,63,68,57,48,58,57,56,30.19,30.08,0,0,0,0.00
2014-8-4,85,74,66,70,59,51,60,59,57,30.12,30.03,0,0,0,0.00